Portland Hillsboro, OR

3:15 AM PDT on July 23, 2017 (GMT -0700)
Portland-Hillsboro

Weather History for KHIO - March, 2014

Change the Weather History Date:

Monday, March 10, 2014

  Actual Average Record
Temperature  
Mean Temperature 44 °F 45 °F  
Max Temperature 54 °F 55 °F 74 °F (2005)
Min Temperature 34 °F 36 °F 21 °F (1943)
Degree Days  
Heating Degree Days 21 20  
Month to date heating degree days 170 205  
Since 1 July heating degree days 3866 3732  
Cooling Degree Days 0 0  
Month to date cooling degree days 0 0  
Year to date cooling degree days 0 0  
Moisture  
Dew Point 41 °F    
Average Humidity 84    
Maximum Humidity 100    
Minimum Humidity 68    
Precipitation  
Precipitation 0.06 in 0.10 in 1.03 in (1983)
Month to date precipitation 3.04 1.10  
Year to date precipitation 10.51 11.57  
Snow  
Snow 0.00 in - - ()
Month to date snowfall 0.0  
Since 1 July snowfall 0.0  
Snow Depth 0.00 in    
Sea Level Pressure  
Sea Level Pressure 30.17 in    
Wind  
Wind Speed 5 mph (NW)    
Max Wind Speed 23 mph    
Max Gust Speed 29 mph    
Visibility 8 miles    
Events Rain    
T = Trace of Precipitation, MM = Missing Value Source: NWS Daily Summary

Daily Weather History Graph

Daily Weather History Graph

Search for Another Location

Airport or City:

Trip Planner

Search our weather history database for the weather conditions in past years. The results will help you decide how hot, cold, wet, or windy it might be!

Date:

Astronomy

Mar. 10, 2014 Rise Set
Actual Time 7:33 AM PDT 7:11 PM PDT
Civil Twilight 7:04 AM PDT 7:40 PM PDT
Nautical Twilight 6:29 AM PDT 8:15 PM PDT
Astronomical Twilight 5:54 AM PDT 8:50 PM PDT
Moon 1:48 PM PDT (3/10) 4:01 AM PDT (3/10)
Length of Visible Light 12h 36m
Length of Day
11h 37m
Waxing Gibbous, 71% of the Moon is Illuminated
Mar 10
Waxing Gibbous
Mar 16
Full
Mar 23
Last Quarter
Mar 30
New
Apr 7
First Quarter

Hourly Weather History & Observations

Time (PDT) Temp. Windchill Dew Point Humidity Pressure Visibility Wind Dir Wind Speed Gust Speed Precip Events Conditions
12:53 AM 48.0 °F - 45.0 °F 89% 30.00 in 10.0 mi Calm Calm - 0.00 in   Mostly Cloudy
1:53 AM 46.9 °F - 45.0 °F 93% 29.99 in 10.0 mi South 3.5 mph - N/A   Scattered Clouds
2:53 AM 46.0 °F - 44.1 °F 93% 30.00 in 10.0 mi Calm Calm - N/A   Mostly Cloudy
3:53 AM 45.0 °F - 44.1 °F 97% 30.01 in 9.0 mi Calm Calm - 0.00 in   Mostly Cloudy
4:28 AM 45.0 °F - 44.1 °F 97% 30.01 in 2.5 mi Calm Calm - N/A   Partly Cloudy
4:36 AM 45.0 °F 43.5 °F 44.1 °F 97% 30.01 in 8.0 mi SSW 3.5 mph - N/A   Clear
4:53 AM 43.0 °F - 42.1 °F 97% 30.01 in 2.5 mi Calm Calm - N/A   Clear
5:07 AM 43.0 °F 40.3 °F 42.1 °F 97% 30.01 in 1.2 mi North 4.6 mph - N/A   Clear
5:12 AM 43.0 °F 40.3 °F 42.1 °F 97% 30.01 in 3.0 mi North 4.6 mph - N/A   Clear
5:22 AM 43.0 °F - 42.1 °F 97% 30.02 in 1.8 mi Calm Calm - N/A   Partly Cloudy
5:26 AM 42.1 °F - 42.1 °F 100% 30.02 in 0.8 mi Calm Calm - N/A   Partly Cloudy
5:45 AM 42.1 °F - 41.0 °F 96% 30.02 in 10.0 mi Calm Calm - N/A   Partly Cloudy
5:53 AM 41.0 °F - 39.9 °F 96% 30.03 in 10.0 mi Calm Calm - N/A   Partly Cloudy
6:53 AM 41.0 °F - 39.9 °F 96% 30.05 in 4.0 mi Calm Calm - N/A   Partly Cloudy
7:53 AM 44.1 °F 42.5 °F 42.1 °F 93% 30.09 in 10.0 mi NNW 3.5 mph - 0.01 in   Overcast
8:53 AM 46.0 °F 41.9 °F 41.0 °F 83% 30.12 in 10.0 mi NW 8.1 mph - N/A   Overcast
9:53 AM 46.9 °F - 39.9 °F 77% 30.16 in 10.0 mi WNW 5.8 mph - N/A   Mostly Cloudy
10:53 AM 50.0 °F - 42.1 °F 74% 30.19 in 10.0 mi WNW 4.6 mph - N/A   Mostly Cloudy
11:53 AM 52.0 °F - 42.1 °F 69% 30.21 in 10.0 mi Variable 3.5 mph - N/A   Mostly Cloudy
12:31 PM 48.9 °F - 43.0 °F 80% 30.22 in 8.0 mi North 10.4 mph - 0.00 in Rain Light Rain
12:53 PM 48.9 °F - 43.0 °F 80% 30.23 in 10.0 mi Calm Calm - 0.01 in   Mostly Cloudy
1:53 PM 52.0 °F - 44.1 °F 74% 30.24 in 10.0 mi NW 12.7 mph - 0.03 in   Mostly Cloudy
2:53 PM 52.0 °F - 41.0 °F 66% 30.25 in 10.0 mi NW 15.0 mph - 0.00 in   Mostly Cloudy
3:53 PM 51.1 °F - 42.1 °F 71% 30.27 in 10.0 mi NNW 11.5 mph - N/A   Scattered Clouds
4:53 PM 50.0 °F - 43.0 °F 77% 30.30 in 10.0 mi WNW 12.7 mph - 0.01 in Rain Light Rain
5:53 PM 50.0 °F - 41.0 °F 71% 30.32 in 10.0 mi NNW 12.7 mph - 0.00 in   Mostly Cloudy
6:53 PM 48.9 °F - 39.9 °F 71% 30.36 in 10.0 mi NW 9.2 mph - N/A   Scattered Clouds
7:53 PM 46.0 °F 42.5 °F 37.9 °F 73% 30.39 in 10.0 mi NW 6.9 mph - N/A   Partly Cloudy
8:53 PM 45.0 °F 42.6 °F 37.0 °F 74% 30.41 in 10.0 mi WSW 4.6 mph - N/A   Clear
9:53 PM 43.0 °F 41.3 °F 37.0 °F 80% 30.45 in 10.0 mi NNW 3.5 mph - N/A   Clear
10:53 PM 41.0 °F - 36.0 °F 82% 30.48 in 10.0 mi Calm Calm - N/A   Clear
11:53 PM 37.0 °F 33.3 °F 35.1 °F 93% 30.51 in 10.0 mi WNW 4.6 mph - N/A   Clear